Waarnemingen

Advertentie
Mijn weer
Lille, Frankrijk (7015): temperatuur & dauwpunt: 19.03.2019 23:00:00 - 25.03.2019 23:00:00 (CET)Lille, Frankrijk (7015): temperatuur 5cm: 19.03.2019 23:00:00 - 25.03.2019 23:00:00 (CET)Lille, Frankrijk (7015): temperatuur -20cm & temperatuur -100cm: 19.03.2019 23:00:00 - 25.03.2019 23:00:00 (CET)Lille, Frankrijk (7015): windsnelheid & windstoten: 19.03.2019 23:00:00 - 25.03.2019 23:00:00 (CET)Lille, Frankrijk (7015): windrichting: 19.03.2019 23:00:00 - 25.03.2019 23:00:00 (CET)Lille, Frankrijk (7015): luchtdruk: 19.03.2019 23:00:00 - 25.03.2019 23:00:00 (CET)Lille, Frankrijk (7015): zicht: 19.03.2019 23:00:00 - 25.03.2019 23:00:00 (CET)Lille, Frankrijk (7015): neerslag: 19.03.2019 23:00:00 - 25.03.2019 23:00:00 (CET)
Datum & Tijd tt [°C] td [°C] tt 5cm [°C] tt -20cm [°C] tt -100cm [°C] ff [km/u] ff [kn] fx [km/u] fx [kn] dd ppp [hPa] vv [km] rr [mm]
25.03.2019 23:00:00 7,5 3,0 6,8 8,2 8,7 19 10 37 20 NNW 1033,1 31 0,0
25.03.2019 22:00:00 7,8 2,5 7,2 8,3 8,7 21 12 41 22 NNW 1032,8 38 0,0
25.03.2019 21:00:00 7,6 3,6 7,2 8,4 8,7 20 11 36 19 NNW 1032,3 27 0,0
25.03.2019 20:00:00 7,6 3,6 7,2 8,6 8,7 21 12 43 23 NNW 1031,7 26 0,0
25.03.2019 19:00:00 7,7 3,7 6,6 8,7 8,7 23 13 46 25 NNW 1031,1 28 0,2
25.03.2019 18:00:00 7,8 4,2 7,4 8,9 8,7 32 17 53 29 NNW 1030,6 15 0,0
25.03.2019 17:00:00 8,8 2,6 9,0 8,9 8,6 31 17 54 29 NNW 1030,3 28 0,0
25.03.2019 16:00:00 9,2 2,7 9,8 8,9 8,7 30 16 63 34 NNW 1029,8 29 0,0
25.03.2019 15:00:00 9,8 2,2 10,4 8,7 8,7 38 21 67 36 NNW 1029,8 30 0,0
25.03.2019 14:00:00 9,6 1,5 10,7 8,4 8,7 39 21 59 32 NNW 1029,6 20 0,0
25.03.2019 13:00:00 9,0 2,3 10,2 8,1 8,6 28 15 49 26 NNW 1029,7 37 0,0
25.03.2019 12:00:00 9,1 1,5 9,9 7,8 8,6 29 16 54 29 NNW 1029,4 20 0,0
25.03.2019 11:00:00 8,7 0,9 8,6 7,6 8,7 28 15 54 29 NNW 1028,8 28 0,0
25.03.2019 10:00:00 7,8 1,4 8,0 7,3 8,6 29 15 49 26 NNW 1028,3 31 0,0
25.03.2019 09:00:00 7,5 2,4 6,7 7,2 8,6 26 14 42 23 NW 1027,4 24 0,0
25.03.2019 08:00:00 6,4 2,1 5,3 7,2 8,6 22 12 36 19 NW 1026,8 34 0,0
25.03.2019 07:00:00 6,2 1,7 5,1 7,3 8,6 24 13 40 21 NW 1026,2 45 0,0
25.03.2019 06:00:00 5,8 3,5 3,6 7,4 8,6 19 10 29 15 WNW 1025,8 43 0,0
25.03.2019 05:00:00 4,7 2,6 3,5 7,5 8,6 18 10 27 15 WNW 1025,5 30 0,0
25.03.2019 04:00:00 4,8 2,3 3,2 7,7 8,6 18 10 23 13 W 1025,7 25 0,0
25.03.2019 03:00:00 4,1 2,8 2,3 7,9 8,6 14 7 15 8 WZW 1025,9 12 0,0
25.03.2019 02:00:00 4,3 2,8 2,4 8,2 8,6 15 8 17 9 WZW 1026,4 18 0,0
25.03.2019 01:00:00 4,8 2,5 3,4 8,4 8,6 11 6 20 11 W 1026,9 24 0,0
25.03.2019 00:00:00 5,2 2,4 3,4 8,6 8,6 14 7 18 10 W 1027,4 33 0,0
24.03.2019 23:00:00 5,7 0,5 3,3 8,9 8,6 14 7 19 10 W 1027,7 37 0,0
24.03.2019 22:00:00 5,8 0,5 0,7 9,3 8,6 8 4 9 5 W 1027,8 42 0,0
24.03.2019 21:00:00 6,2 0,1 1,1 9,7 8,6 4 2 8 5 ZZW 1027,9 55 0,0
24.03.2019 20:00:00 7,2 -0,3 4,0 10,1 8,6 7 4 20 11 NW 1028,2 60 0,0
24.03.2019 19:00:00 9,2 0,6 8,0 10,6 8,6 16 9 26 14 NW 1028,0 59 0,0
24.03.2019 18:00:00 11,0 0,1 13,5 10,8 8,6 15 8 26 14 NNW 1027,8 53 0,0
24.03.2019 17:00:00 12,2 0,0 16,9 10,8 8,5 12 7 24 13 NW 1027,6 31 0,0
24.03.2019 16:00:00 11,9 -1,6 17,8 10,6 8,5 11 6 25 13 NNW 1028,1 27 0,0
24.03.2019 15:00:00 11,5 -0,7 17,1 10,2 8,5 15 8 36 20 N 1028,6 18 0,0
24.03.2019 14:00:00 11,4 -0,1 16,2 9,8 8,5 22 12 35 19 NNW 1029,3 17 0,0
24.03.2019 13:00:00 10,6 -0,6 13,7 9,4 8,5 17 9 32 17 NNW 1029,4 17 0,0
24.03.2019 12:00:00 11,3 2,6 15,8 8,9 8,5 14 7 25 13 NW 1029,3 17 0,0
24.03.2019 11:00:00 10,1 4,9 13,9 8,5 8,5 11 6 23 13 NW 1029,4 17 0,0
24.03.2019 10:00:00 8,5 4,5 12,4 8,4 8,5 16 9 24 13 N 1029,9 17 0,0
24.03.2019 09:00:00 8,1 4,1 7,5 8,4 8,5 11 6 18 10 NNW 1029,6 17 0,0
24.03.2019 08:00:00 6,6 3,7 6,7 8,4 8,5 4 2 16 9 NNO 1029,1 19 0,0
24.03.2019 07:00:00 6,8 3,9 6,6 8,5 8,5 11 6 20 11 N 1029,4 20 0,0
24.03.2019 06:00:00 7,0 4,0 6,8 8,6 8,5 11 6 26 14 NNO 1029,3 23 0,0
24.03.2019 05:00:00 7,0 3,8 6,7 8,7 8,5 18 10 31 17 NNO 1029,4 21 0,0
24.03.2019 04:00:00 7,1 3,7 6,3 8,8 8,5 20 11 32 17 NNO 1029,7 20 0,0
24.03.2019 03:00:00 7,2 3,6 6,9 8,9 8,5 19 10 31 17 NNO 1029,9 17 0,0
24.03.2019 02:00:00 7,8 3,3 7,6 9,0 8,4 19 10 31 17 NNO 1030,2 32 0,0
24.03.2019 01:00:00 8,0 4,0 7,8 9,2 8,5 22 12 32 17 NNO 1030,3 26 0,0
24.03.2019 00:00:00 8,3 4,5 8,0 9,3 8,4 18 10 26 14 N 1030,5 26 0,0
23.03.2019 23:00:00 8,6 4,4 8,4 9,5 8,4 14 8 28 15 NNO 1030,8 28 0,0
23.03.2019 22:00:00 9,0 4,2 8,7 9,6 8,4 16 8 31 17 NNO 1031,3 37 0,0
23.03.2019 21:00:00 9,5 4,7 9,1 9,8 8,4 15 8 29 15 NNO 1031,1 39 0,0
23.03.2019 20:00:00 9,8 5,4 9,4 9,9 8,4 17 9 27 14 N 1031,2 39 0,0
23.03.2019 19:00:00 10,1 5,5 9,8 10,1 8,4 20 11 31 17 NNO 1031,1 45 0,0
23.03.2019 18:00:00 10,4 6,5 10,4 10,2 8,4 19 10 29 16 NNO 1031,0 20 0,0
23.03.2019 17:00:00 10,6 7,5 10,6 10,4 8,4 19 11 29 16 N 1030,9 10 0,0
23.03.2019 16:00:00 11,8 7,5 11,8 10,4 8,4 11 6 18 10 NO 1030,9 9 0,0
23.03.2019 15:00:00 12,2 7,1 12,9 10,2 8,4 7 4 16 8 NO 1030,9 9 0,0
23.03.2019 14:00:00 12,2 7,5 13,5 10,0 8,4 6 3 14 8 ONO 1031,1 7 0,0
23.03.2019 13:00:00 11,3 7,4 12,8 9,7 8,4 9 5 18 10 N 1031,3 7 0,0
23.03.2019 12:00:00 11,0 7,1 11,9 9,5 8,4 9 5 21 11 NNW 1031,2 8 0,0
23.03.2019 11:00:00 10,4 6,7 11,3 9,3 8,3 6 4 13 7 W 1031,2 7 0,0
23.03.2019 10:00:00 9,6 6,5 10,1 9,2 8,3 6 3 10 5 W 1030,9 6 0,0
23.03.2019 09:00:00 8,8 6,2 8,7 9,1 8,3 4 2 7 4 ZW 1030,7 4,5 0,0
23.03.2019 08:00:00 8,0 6,8 7,7 9,1 8,3 4 2 8 4 WZW 1030,4 3,4 0,0
23.03.2019 07:00:00 7,7 6,6 7,6 9,2 8,3 4 2 10 5 ZZO 1030,0 2,8 0,0
23.03.2019 06:00:00 7,8 6,4 7,6 9,2 8,3 4 2 6 4 ZZW 1029,6 2,9 0,0
23.03.2019 05:00:00 7,8 6,4 7,6 9,3 8,3 8 4 11 6 Z 1029,3 2,7 0,0
23.03.2019 04:00:00 7,7 6,3 7,6 9,4 8,3 6 3 10 5 ZZW 1029,2 2,5 0,0
23.03.2019 03:00:00 7,7 6,3 7,7 9,5 8,3 7 4 9 5 Z 1029,3 2,5 0,0
23.03.2019 02:00:00 7,8 6,3 7,4 9,6 8,3 5 3 21 11 W 1029,6 3,3 0,0
23.03.2019 01:00:00 7,4 5,9 7,3 9,8 8,3 17 9 26 14 NW 1029,5 3,6 0,0
23.03.2019 00:00:00 7,6 6,7 7,5 9,9 8,3 15 8 22 12 WNW 1029,2 1,8 0,0
22.03.2019 23:00:00 8,7 7,5 8,1 10,1 8,3 12 7 19 11 NW 1029,0 2,4 0,0
22.03.2019 22:00:00 8,7 8,1 4,3 10,5 8,3 10 5 16 9 NW 1028,8 2,1 0,0
22.03.2019 21:00:00 9,2 7,5 4,3 10,9 8,3 5 3 20 11 WZW 1028,4 3,5 0,0
22.03.2019 20:00:00 11,1 8,3 9,5 11,3 8,3 16 8 19 10 W 1028,4 5 0,0
22.03.2019 19:00:00 13,2 8,3 11,5 11,7 8,2 14 8 22 12 W 1027,6 8 0,0
22.03.2019 18:00:00 16,1 5,1 16,7 11,9 8,2 10 6 18 10 ZW 1027,3 14 0,0
22.03.2019 17:00:00 16,8 3,1 19,7 11,8 8,3 13 7 20 11 Z 1027,1 15 0,0
22.03.2019 16:00:00 16,8 2,4 20,9 11,5 8,2 7 4 18 10 ZZW 1027,4 19 0,0
22.03.2019 15:00:00 16,6 6,7 20,0 10,9 8,2 8 5 17 9 WZW 1027,9 9 0,0
22.03.2019 14:00:00 14,8 7,1 19,0 10,1 8,2 6 3 16 9 ZZW 1028,3 9 0,0
22.03.2019 13:00:00 13,5 7,3 17,1 9,4 8,2 6 3 15 8 WZW 1029,1 7 0,0
22.03.2019 12:00:00 11,4 6,7 15,4 8,8 8,2 4 2 10 6 Z 1029,6 7 0,0
22.03.2019 11:00:00 8,6 7,5 9,0 8,4 8,2 5 3 16 9 ZZO 1030,3 3,7 0,0
22.03.2019 10:00:00 6,7 6,7 7,0 8,2 8,2 4 2 9 5 NO 1030,8 1,9 0,0
22.03.2019 09:00:00 6,0 5,9 6,1 8,1 8,2 3 1 9 5 O 1030,8 0,1 0,0
22.03.2019 08:00:00 6,0 5,9 6,0 8,1 8,2 4 2 11 6 O 1030,7 0,1 0,0
22.03.2019 07:00:00 6,1 6,0 6,1 8,1 8,2 8 4 14 8 ONO 1030,5 0,1 0,0
22.03.2019 06:00:00 6,3 6,2 6,0 8,1 8,2 8 5 13 7 NNO 1030,4 0,1 0,0
22.03.2019 05:00:00 6,0 5,9 5,9 8,1 8,2 6 3 9 5 NNO 1030,6 0,1 0,0
22.03.2019 04:00:00 6,3 6,2 6,2 8,2 8,2 8 4 12 7 NO 1030,7 0,1 0,0
22.03.2019 03:00:00 6,7 6,6 5,7 8,3 8,2 9 5 15 8 NO 1031,2 0,1 0,0
22.03.2019 02:00:00 6,5 6,2 2,8 8,5 8,2 9 5 13 7 NNO 1031,7 0,4 0,2
22.03.2019 01:00:00 6,5 5,9 3,4 8,8 8,2 8 4 14 7 NNO 1032,1 2,1 0,0
22.03.2019 00:00:00 7,5 6,8 4,5 9,0 8,2 7 4 11 6 NNO 1032,6 4,0 0,0
21.03.2019 23:00:00 7,6 6,7 5,2 9,3 8,2 6 3 12 6 NNO 1033,0 5 0,0
21.03.2019 22:00:00 8,5 7,1 7,0 9,6 8,2 11 6 20 11 N 1033,0 4,5 0,0
21.03.2019 21:00:00 8,9 7,2 5,9 9,9 8,2 10 5 16 9 N 1033,0 10 0,0
21.03.2019 20:00:00 9,7 7,1 6,8 10,3 8,2 9 5 18 10 NNW 1033,0 18 0,0
21.03.2019 19:00:00 10,9 7,2 9,6 10,6 8,2 11 6 17 9 NW 1032,8 22 0,0
21.03.2019 18:00:00 12,7 7,4 14,9 10,7 8,2 11 6 19 10 WNW 1032,7 27 0,0
21.03.2019 17:00:00 13,8 7,6 18,3 10,5 8,2 7 4 16 9 W 1032,7 32 0,0
21.03.2019 16:00:00 13,3 7,7 15,3 10,1 8,2 9 5 18 10 WNW 1033,2 21 0,0
21.03.2019 15:00:00 13,3 7,1 16,0 9,6 8,2 10 5 19 10 NW 1033,8 21 0,0
21.03.2019 14:00:00 13,0 7,7 15,4 9,0 8,2 7 4 22 12 ZW 1034,4 22 0,0
21.03.2019 13:00:00 12,4 7,3 13,9 8,4 8,2 5 3 18 10 W 1034,8 19 0,0
21.03.2019 12:00:00 11,3 7,0 13,0 7,9 8,2 9 5 16 9 W 1035,3 21 0,0
21.03.2019 11:00:00 11,1 7,0 13,2 7,3 8,2 9 5 20 11 W 1035,5 20 0,0
21.03.2019 10:00:00 9,0 7,1 12,4 7,0 8,2 6 3 11 6 WZW 1035,3 18 0,0
21.03.2019 09:00:00 7,2 7,1 6,3 6,9 8,2 3 1 5 3 Z 1035,3 2,2 0,0
21.03.2019 08:00:00 5,1 5,0 2,7 6,9 8,2 0 0 8 4 N 1035,3 0,5 0,0
21.03.2019 07:00:00 3,5 3,4 1,0 7,0 8,2 3 2 8 4 W 1035,1 0,1 0,0
21.03.2019 06:00:00 4,2 3,9 0,3 7,2 8,2 4 2 6 4 WZW 1034,7 0,1 0,0
21.03.2019 05:00:00 4,6 4,3 0,9 7,4 8,2 3 2 5 3 W 1034,5 0,1 0,0
21.03.2019 04:00:00 4,8 4,5 0,9 7,6 8,2 2 1 4 2 WNW 1034,3 0,1 0,0
21.03.2019 03:00:00 4,9 4,3 1,5 7,9 8,2 2 1 5 3 ZO 1034,6 0,4 0,0
21.03.2019 02:00:00 5,7 5,1 1,4 8,2 8,2 4 2 5 3 ZZW 1035,0 1,6 0,0
21.03.2019 01:00:00 6,1 5,4 2,0 8,5 8,2 3 2 4 2 W 1035,0 4,3 0,0
21.03.2019 00:00:00 6,8 5,7 2,9 8,7 8,2 4 2 8 4 W 1035,0 3,7 0,0
20.03.2019 23:00:00 7,4 5,9 4,3 9,0 8,2 8 5 10 5 WNW 1035,2 13 0,0
20.03.2019 22:00:00 8,1 5,9 5,8 9,4 8,2 8 4 17 9 WNW 1035,2 15 0,0
20.03.2019 21:00:00 10,3 6,6 8,5 9,6 8,2 12 7 15 8 W 1034,8 26 0,0
20.03.2019 20:00:00 11,6 6,7 10,8 9,7 8,2 10 6 15 8 W 1034,6 49 0,0
20.03.2019 19:00:00 12,1 6,4 11,3 9,9 8,2 7 4 14 8 ZW 1034,2 39 0,0
20.03.2019 18:00:00 12,9 6,5 13,0 10,0 8,2 9 5 21 11 WZW 1033,9 47 0,0
20.03.2019 17:00:00 13,5 7,0 13,6 9,9 8,2 10 6 23 12 WZW 1033,6 31 0,0
20.03.2019 16:00:00 13,7 6,8 14,6 9,5 8,2 14 8 26 14 WZW 1033,8 19 0,0
20.03.2019 15:00:00 13,3 6,6 14,8 8,9 8,2 14 8 24 13 ZW 1034,1 23 0,0
20.03.2019 14:00:00 13,0 7,9 13,6 8,2 8,2 16 9 27 15 W 1034,8 20 0,0
20.03.2019 13:00:00 12,4 6,7 13,9 7,7 8,2 10 5 19 10 WZW 1035,1 36 0,0
20.03.2019 12:00:00 12,0 6,7 12,5 7,1 8,2 14 8 24 13 ZW 1034,5 32 0,0
20.03.2019 11:00:00 10,8 6,3 11,9 6,6 8,2 16 8 23 13 Z 1034,0 30 0,0
20.03.2019 10:00:00 9,4 5,8 9,8 6,2 8,2 11 6 17 9 Z 1034,1 22 0,0
20.03.2019 09:00:00 7,7 5,0 5,5 6,1 8,2 11 6 16 8 Z 1034,1 28 0,0
20.03.2019 08:00:00 4,0 3,1 1,0 6,2 8,2 8 5 11 6 Z 1033,5 19 0,0
20.03.2019 07:00:00 2,7 2,0 -0,1 6,4 8,2 4 2 11 6 Z 1033,1 21 0,0
20.03.2019 06:00:00 2,9 2,3 -0,4 6,5 8,2 4 2 9 5 Z 1032,6 8 0,0
20.03.2019 05:00:00 3,3 2,6 1,0 6,7 8,2 4 2 13 7 Z 1032,2 9 0,0
20.03.2019 04:00:00 4,6 4,2 0,1 6,9 8,2 6 3 10 6 Z 1032,1 2,2 0,0
20.03.2019 03:00:00 4,0 3,3 0,3 7,1 8,2 3 2 8 4 Z 1032,5 0,2 0,0
20.03.2019 02:00:00 5,0 4,1 2,0 7,4 8,2 4 2 8 4 Z 1032,5 2,9 0,0
20.03.2019 01:00:00 6,2 4,7 4,1 7,6 8,2 2 1 10 5 Z 1032,3 6 0,0
20.03.2019 00:00:00 7,2 5,2 5,1 7,8 8,2 10 5 14 8 ZW 1031,9 14 0,0
19.03.2019 23:00:00 6,7 4,0 5,5 7,9 8,2 10 5 11 6 W 1032,0 12 0,0

tt = temperatuur
td = dauwpunt
tt 5cm = temperatuur 5cm
tt -20cm = temperatuur -20cm
tt -100cm = temperatuur -100cm
ff = windsnelheid
fx = windstoten
dd = windrichting
ppp = luchtdruk
vv = zicht
rr = neerslag

Weerstations in de omgeving